Location: Mt. Graham
(32.7020°N, 109.8880°W)
Time: 04:08:19
(UTC-07:00)

Envisat - Visible Passes

Search period start: 20 September 2017 00:00
Search period end: 30 September 2017 00:00
Orbit: 764 x 766 km, 98.2° (Epoch: 19 September)

Date Brightness Start Highest point End Pass type
(mag) Time Alt. Az. Time Alt. Az. Time Alt. Az.
20 Sep 4.9 18:47:34 10° ENE 18:48:04 10° ENE 18:48:33 10° ENE visible
20 Sep 3.0 20:25:55 70° SSW 20:26:22 76° WSW 20:31:27 10° NNW visible
21 Sep 3.3 19:48:56 41° E 19:49:46 44° ENE 19:54:33 10° N visible
21 Sep 5.5 21:29:09 16° W 21:29:09 16° W 21:32:03 10° NW visible
22 Sep 4.3 19:11:57 17° E 19:13:21 19° ENE 19:16:51 10° NNE visible
22 Sep 4.1 20:52:10 39° W 20:52:10 39° W 20:56:45 10° NNW visible
23 Sep 2.8 20:15:11 83° ESE 20:15:17 83° ENE 20:20:22 10° N visible
24 Sep 3.6 19:38:12 33° E 19:38:44 34° ENE 19:43:16 10° N visible
24 Sep 5.2 21:18:25 21° W 21:18:25 21° W 21:21:34 10° NW visible
25 Sep 4.6 19:01:14 14° E 19:02:22 15° ENE 19:05:09 10° NNE visible
25 Sep 3.8 20:41:27 49° WNW 20:41:27 49° WNW 20:45:50 10° NNW visible
26 Sep 2.9 20:04:28 63° ENE 20:04:28 63° ENE 20:09:14 10° N visible
26 Sep 6.0 21:44:41 10° WNW 21:44:41 10° WNW 21:44:49 10° WNW visible
27 Sep 3.9 19:27:29 27° ENE 19:27:42 27° ENE 19:31:55 10° NNE visible
27 Sep 5.0 21:07:43 25° WNW 21:07:43 25° WNW 21:10:53 10° NW visible
28 Sep 4.8 18:50:31 11° ENE 18:51:24 11° ENE 18:52:59 10° NE visible
28 Sep 3.5 20:30:44 55° NW 20:30:44 55° NW 20:34:50 10° NNW visible
29 Sep 3.3 19:53:45 46° NE 19:53:45 46° NE 19:58:01 10° N visible
29 Sep 5.8 21:33:58 13° WNW 21:33:58 13° WNW 21:35:08 10° WNW visible
